• In Deutschland
  • Länderverzeichnis
  • Für 7 Tage
  • Wassertemperatur
  • Satellitenkarten
  • Wetterkarte
  • Widgets
  • user-avatar
    Anmelden

    Stündliche Wetter Bad Kohlgrub

    Heute, 24 Oktober, Dienstag

    Zeit Temperatur Niederschläge Wind Luftdruck Luftfeuchtigkeit
    00:00 +4°C° 0,5 mm 2 m/S 689 mmHg 96%
    01:00 +5°C° 0 mm 2 m/S 689 mmHg 96%
    02:00 +5°C° 0,3 mm 2 m/S 689 mmHg 96%
    03:00 +5°C° 0,3 mm 2 m/S 689 mmHg 96%
    04:00 +5°C° 0,3 mm 2 m/S 689 mmHg 96%
    05:00 +5°C° 0,1 mm 2 m/S 689 mmHg 96%
    06:00 +5°C° 0,1 mm 2 m/S 690 mmHg 96%
    07:00 +4°C° 0,1 mm 2 m/S 690 mmHg 95%
    08:00 +6°C° 0 mm 2 m/S 690 mmHg 92%
    09:00 +7°C° 0 mm 2 m/S 690 mmHg 88%
    10:00 +8°C° 0 mm 2 m/S 690 mmHg 84%
    11:00 +9°C° 0 mm 2 m/S 690 mmHg 79%
    12:00 +11°C° 0 mm 1 m/S 690 mmHg 74%
    13:00 +13°C° 0 mm 1 m/S 690 mmHg 69%
    14:00 +12°C° 0 mm 1 m/S 690 mmHg 71%
    15:00 +12°C° 0 mm 1 m/S 690 mmHg 74%
    16:00 +12°C° 0 mm 1 m/S 690 mmHg 77%
    17:00 +10°C° 0 mm 1 m/S 690 mmHg 81%
    18:00 +8°C° 0 mm 1 m/S 690 mmHg 84%
    19:00 +7°C° 0 mm 1 m/S 690 mmHg 88%
    20:00 +6°C° 0 mm 1 m/S 690 mmHg 87%
    21:00 +5°C° 0 mm 2 m/S 690 mmHg 85%
    22:00 +5°C° 0 mm 2 m/S 691 mmHg 83%
    23:00 +5°C° 0 mm 2 m/S 690 mmHg 81%

    Morgen, 25 Oktober, Mittwoch

    Zeit Temperatur Niederschläge Wind Luftdruck Luftfeuchtigkeit
    00:00 +5°C° 0 mm 2 m/S 690 mmHg 79%
    01:00 +5°C° 0 mm 2 m/S 690 mmHg 77%
    02:00 +5°C° 0 mm 2 m/S 690 mmHg 77%
    03:00 +6°C° 0 mm 2 m/S 690 mmHg 76%
    04:00 +6°C° 0 mm 2 m/S 690 mmHg 76%
    05:00 +6°C° 0 mm 2 m/S 690 mmHg 75%
    06:00 +6°C° 0 mm 2 m/S 690 mmHg 75%
    07:00 +7°C° 0 mm 1 m/S 690 mmHg 75%
    08:00 +9°C° 0 mm 1 m/S 690 mmHg 71%
    09:00 +12°C° 0 mm 1 m/S 691 mmHg 67%
    10:00 +14°C° 0 mm 1 m/S 692 mmHg 64%
    11:00 +15°C° 0 mm 1 m/S 692 mmHg 62%
    12:00 +16°C° 0 mm 1 m/S 692 mmHg 60%
    13:00 +18°C° 0 mm 1 m/S 692 mmHg 58%
    14:00 +18°C° 0 mm 1 m/S 692 mmHg 64%
    15:00 +15°C° 0 mm 0 m/S 691 mmHg 69%
    16:00 +14°C° 0 mm 0 m/S 691 mmHg 75%
    17:00 +13°C° 0 mm 1 m/S 691 mmHg 79%
    18:00 +12°C° 0 mm 1 m/S 691 mmHg 83%
    19:00 +10°C° 0 mm 1 m/S 691 mmHg 87%
    20:00 +10°C° 0 mm 1 m/S 691 mmHg 86%
    21:00 +9°C° 0 mm 1 m/S 691 mmHg 85%
    22:00 +9°C° 0 mm 1 m/S 691 mmHg 84%
    23:00 +9°C° 0 mm 1 m/S 691 mmHg 82%

    übermorgen, 26 Oktober, Donnerstag

    Zeit Temperatur Niederschläge Wind Luftdruck Luftfeuchtigkeit
    00:00 +9°C° 0 mm 1 m/S 692 mmHg 79%
    01:00 +9°C° 0 mm 1 m/S 692 mmHg 77%
    02:00 +10°C° 0 mm 1 m/S 691 mmHg 75%
    03:00 +10°C° 0 mm 1 m/S 691 mmHg 73%
    04:00 +10°C° 0 mm 1 m/S 691 mmHg 71%
    05:00 +10°C° 0 mm 1 m/S 691 mmHg 71%
    06:00 +9°C° 0 mm 1 m/S 691 mmHg 70%
    07:00 +9°C° 0 mm 1 m/S 691 mmHg 69%
    08:00 +11°C° 0 mm 1 m/S 692 mmHg 65%
    09:00 +14°C° 0 mm 1 m/S 692 mmHg 61%
    10:00 +16°C° 0 mm 1 m/S 693 mmHg 57%
    11:00 +18°C° 0 mm 1 m/S 692 mmHg 55%
    12:00 +19°C° 0 mm 1 m/S 692 mmHg 53%
    13:00 +20°C° 0 mm 1 m/S 692 mmHg 50%
    14:00 +19°C° 0 mm 1 m/S 692 mmHg 58%
    15:00 +18°C° 0 mm 1 m/S 692 mmHg 65%
    16:00 +16°C° 0 mm 1 m/S 692 mmHg 72%
    17:00 +14°C° 0 mm 1 m/S 691 mmHg 76%
    18:00 +12°C° 0 mm 1 m/S 691 mmHg 80%
    19:00 +11°C° 0 mm 1 m/S 691 mmHg 84%
    20:00 +9°C° 0 mm 2 m/S 691 mmHg 83%
    21:00 +9°C° 0 mm 2 m/S 691 mmHg 81%
    22:00 +9°C° 0 mm 2 m/S 691 mmHg 79%
    23:00 +9°C° 0 mm 2 m/S 691 mmHg 77%

    27 Oktober, Freitag

    Zeit Temperatur Niederschläge Wind Luftdruck Luftfeuchtigkeit
    00:00 +9°C° 0 mm 2 m/S 690 mmHg 74%
    01:00 +8°C° 0 mm 2 m/S 690 mmHg 72%
    02:00 +8°C° 0 mm 2 m/S 690 mmHg 70%
    03:00 +8°C° 0 mm 2 m/S 689 mmHg 69%
    04:00 +8°C° 0 mm 2 m/S 689 mmHg 67%
    05:00 +9°C° 0 mm 2 m/S 689 mmHg 67%
    06:00 +9°C° 0 mm 2 m/S 689 mmHg 67%
    07:00 +9°C° 0 mm 3 m/S 688 mmHg 66%
    08:00 +10°C° 0 mm 3 m/S 688 mmHg 65%
    09:00 +12°C° 0 mm 3 m/S 688 mmHg 64%
    10:00 +14°C° 0 mm 4 m/S 688 mmHg 62%
    11:00 +14°C° 0 mm 4 m/S 688 mmHg 62%
    12:00 +15°C° 0 mm 5 m/S 688 mmHg 61%
    13:00 +15°C° 0 mm 6 m/S 687 mmHg 61%
    14:00 +14°C° 0,6 mm 5 m/S 687 mmHg 70%
    15:00 +12°C° 0,6 mm 4 m/S 687 mmHg 79%
    16:00 +11°C° 0,6 mm 4 m/S 686 mmHg 89%
    17:00 +10°C° 1,1 mm 4 m/S 687 mmHg 91%
    18:00 +10°C° 1,1 mm 3 m/S 687 mmHg 93%
    19:00 +9°C° 1,1 mm 3 m/S 687 mmHg 95%
    20:00 +9°C° 1,7 mm 3 m/S 687 mmHg 96%
    21:00 +8°C° 1,7 mm 3 m/S 687 mmHg 96%
    22:00 +7°C° 1,7 mm 2 m/S 687 mmHg 96%
    23:00 +7°C° 0,8 mm 2 m/S 687 mmHg 96%

    28 Oktober, Samstag

    Zeit Temperatur Niederschläge Wind Luftdruck Luftfeuchtigkeit
    00:00 +6°C° 0,8 mm 2 m/S 687 mmHg 97%
    01:00 +5°C° 0,8 mm 2 m/S 687 mmHg 97%
    02:00 +5°C° 0,1 mm 2 m/S 687 mmHg 97%
    03:00 +5°C° 0,1 mm 2 m/S 687 mmHg 97%
    04:00 +5°C° 0,1 mm 1 m/S 687 mmHg 97%
    05:00 +5°C° 0 mm 1 m/S 687 mmHg 97%
    06:00 +4°C° 0 mm 1 m/S 687 mmHg 97%
    07:00 +4°C° 0 mm 1 m/S 687 mmHg 96%
    08:00 +5°C° 0 mm 1 m/S 687 mmHg 91%
    09:00 +6°C° 0 mm 1 m/S 687 mmHg 87%
    10:00 +8°C° 0 mm 1 m/S 687 mmHg 82%
    11:00 +8°C° 0 mm 2 m/S 686 mmHg 76%
    12:00 +8°C° 0 mm 2 m/S 685 mmHg 70%
    13:00 +9°C° 0 mm 2 m/S 685 mmHg 64%
    14:00 +9°C° 0 mm 2 m/S 684 mmHg 66%
    15:00 +8°C° 0 mm 2 m/S 683 mmHg 68%
    16:00 +8°C° 0 mm 2 m/S 683 mmHg 71%
    17:00 +6°C° 0 mm 2 m/S 683 mmHg 78%
    18:00 +5°C° 0 mm 2 m/S 682 mmHg 85%
    19:00 +3°C° 0 mm 2 m/S 682 mmHg 92%
    20:00 +3°C° 0 mm 2 m/S 682 mmHg 92%
    21:00 +3°C° 0 mm 2 m/S 682 mmHg 92%
    22:00 +3°C° 0 mm 2 m/S 682 mmHg 92%
    23:00 +3°C° 0 mm 2 m/S 681 mmHg 90%

    29 Oktober, Sonntag

    Zeit Temperatur Niederschläge Wind Luftdruck Luftfeuchtigkeit
    00:00 +3°C° 0 mm 2 m/S 681 mmHg 89%
    01:00 +3°C° 0 mm 2 m/S 680 mmHg 87%
    02:00 +3°C° 0,1 mm 2 m/S 680 mmHg 86%
    03:00 +3°C° 0,1 mm 2 m/S 679 mmHg 85%
    04:00 +4°C° 0,1 mm 2 m/S 679 mmHg 84%
    05:00 +4°C° 0,7 mm 2 m/S 679 mmHg 86%
    06:00 +3°C° 0,7 mm 3 m/S 678 mmHg 89%
    07:00 +2°C° 0,7 mm 3 m/S 678 mmHg 91%
    08:00 +3°C° 1,6 mm 4 m/S 679 mmHg 91%
    09:00 +3°C° 1,6 mm 4 m/S 679 mmHg 90%
    10:00 +3°C° 1,6 mm 4 m/S 679 mmHg 90%
    11:00 +3°C° 0,8 mm 4 m/S 680 mmHg 90%
    12:00 +1°C° 0,8 mm 4 m/S 680 mmHg 90%
    13:00 +1°C° 0,8 mm 4 m/S 680 mmHg 89%
    14:00 +1°C° 0,9 mm 4 m/S 681 mmHg 90%
    15:00 0°C° 0,9 mm 4 m/S 681 mmHg 91%
    16:00 0°C° 0,9 mm 4 m/S 681 mmHg 92%
    17:00 +1°C° 0,7 mm 3 m/S 682 mmHg 92%
    18:00 +1°C° 0,7 mm 3 m/S 683 mmHg 93%
    19:00 0°C° 0,7 mm 3 m/S 683 mmHg 94%
    20:00 0°C° 0,6 mm 3 m/S 684 mmHg 95%
    21:00 0°C° 0,6 mm 3 m/S 684 mmHg 95%
    22:00 0°C° 0,6 mm 3 m/S 685 mmHg 95%
    23:00 0°C° 0,4 mm 3 m/S 685 mmHg 96%

    30 Oktober, Montag

    Zeit Temperatur Niederschläge Wind Luftdruck Luftfeuchtigkeit
    00:00 0°C° 0,4 mm 3 m/S 685 mmHg 96%
    01:00 0°C° 0,4 mm 3 m/S 685 mmHg 96%
    02:00 0°C° 0,2 mm 3 m/S 685 mmHg 96%
    03:00 0°C° 0,2 mm 3 m/S 685 mmHg 96%
    04:00 0°C° 0,2 mm 3 m/S 685 mmHg 96%
    05:00 +1°C° 0,4 mm 2 m/S 686 mmHg 96%
    06:00 +1°C° 0,4 mm 2 m/S 686 mmHg 96%
    07:00 +1°C° 0,4 mm 2 m/S 686 mmHg 96%
    08:00 +1°C° 0,1 mm 2 m/S 686 mmHg 94%
    09:00 +1°C° 0,1 mm 3 m/S 686 mmHg 93%
    10:00 +2°C° 0,1 mm 3 m/S 687 mmHg 91%
    11:00 +2°C° 0,1 mm 3 m/S 687 mmHg 90%
    12:00 +4°C° 0,1 mm 2 m/S 687 mmHg 89%
    13:00 +4°C° 0,1 mm 2 m/S 687 mmHg 88%
    14:00 +4°C° 0,2 mm 2 m/S 687 mmHg 89%
    15:00 +4°C° 0,2 mm 2 m/S 687 mmHg 91%
    16:00 +4°C° 0,2 mm 2 m/S 687 mmHg 92%
    17:00 +3°C° 0,1 mm 2 m/S 687 mmHg 93%
    18:00 +2°C° 0,1 mm 2 m/S 688 mmHg 94%
    19:00 +1°C° 0,1 mm 2 m/S 688 mmHg 94%
    20:00 +1°C° 0 mm 2 m/S 688 mmHg 94%
    21:00 -1°C° 0 mm 2 m/S 689 mmHg 93%
    22:00 -1°C° 0 mm 2 m/S 689 mmHg 92%
    23:00 -1°C° 0 mm 2 m/S 689 mmHg 91%
    Mehr zeigen